Overview Statistics Trail Chart Weather Telemetry Raw packets
 

This is the latest recevied weather packets stored in our database for station/object DL4MGC-10. If no packets are shown the sender has not sent any weather packets the latest 10 day(s).

<< 22 23 24 25 26 27 28 >>
Time Temp. Humidity Pressure Rain* Wind** Luminosity Snow
1788174707 25.56° C 58% 1017.7 hPa - - - -
1788173807 26.11° C 59% 1017.7 hPa - - - -
1788172907 25.56° C 59% 1017.7 hPa - - - -
1788172007 24.44° C 63% 1017.8 hPa - - - -
1788171107 24.44° C 65% 1017.8 hPa - - - -
1788170207 24.44° C 66% 1018 hPa - - - -
1788169307 24.44° C 64% 1018 hPa - - - -
1788168407 23.89° C 67% 1018.1 hPa - - - -
1788167506 24.44° C 71% 1018.1 hPa - - - -
1788166606 24.44° C 71% 1018 hPa - - - -
1788165706 24.44° C 72% 1018 hPa - - - -
1788164806 23.89° C 79% 1017.8 hPa - - - -
1788163906 22.78° C 80% 1017.8 hPa - - - -
1788163006 22.78° C 83% 1017.6 hPa - - - -
1788162106 22.78° C 83% 1017.5 hPa - - - -
1788161206 22.78° C 86% 1017.4 hPa - - - -
1788160306 21.67° C 90% 1017.4 hPa - - - -
1788159406 21.67° C 87% 1017.3 hPa - - - -
1788158505 20.56° C 91% 1017.1 hPa - - - -
1788157605 20.56° C 94% 1017.1 hPa - - - -
1788156705 20° C 97% 1017.1 hPa - - - -
1788155805 18.89° C 98% 1017 hPa - - - -
1788154905 18.89° C 99% 1016.9 hPa - - - -
1788154005 18.33° C 100% 1016.7 hPa - - - -
1788153105 18.33° C 100% 1016.7 hPa - - - -

* Rain since midnight (hover to see other rain measurements)
** Current wind speed in m/s (hover to see current wind gust speed)